AFL740 URML-URMT

Flight info

Callsign AFL740
Flight time 1h 2m
Altitude 360
Route DUBKI W86 GASNI A820 NEGUB B494 GIRTI
Aircraft A320/M-VGDW/C

Departure

Time 2026-04-17 10:57
Airport Makhachkala Uytash International Airport (URML)

Arrival

Time 2026-04-17 12:00
Airport Stavropol Shpakovskoye Airport (URMT)
Time Latitude Longitude Altitude Speed Heading
2026-04-17 10:34 42.82113 47.65466 65 ft 0 kts 58°
2026-04-17 10:40 42.82113 47.65465 65 ft 0 kts 58°
2026-04-17 10:48 42.82110 47.65460 64 ft 2 kts 58°
2026-04-17 10:49 42.82101 47.65441 63 ft 2 kts 58°
2026-04-17 10:49 42.82092 47.65421 63 ft 2 kts 58°
2026-04-17 10:49 42.82083 47.65402 65 ft 2 kts 58°
2026-04-17 10:49 42.82074 47.65382 63 ft 2 kts 46°
2026-04-17 10:50 42.82060 47.65373 68 ft 2 kts 353°
2026-04-17 10:50 42.82043 47.65375 64 ft 2 kts 353°
2026-04-17 10:50 42.82026 47.65379 64 ft 2 kts 326°
2026-04-17 10:50 42.82012 47.65392 65 ft 2 kts 326°
2026-04-17 10:51 42.82001 47.65401 64 ft 0 kts 326°
2026-04-17 10:53 42.82010 47.65393 63 ft 4 kts 326°
2026-04-17 10:54 42.82024 47.65362 63 ft 3 kts 276°
2026-04-17 10:54 42.82017 47.65337 67 ft 2 kts 245°
2026-04-17 10:54 42.82003 47.65301 64 ft 7 kts 241°
2026-04-17 10:54 42.81978 47.65245 64 ft 2 kts 237°
2026-04-17 10:55 42.81971 47.65231 64 ft 1 kts 238°
2026-04-17 10:55 42.81967 47.65222 63 ft 1 kts 238°
2026-04-17 10:55 42.81966 47.65218 63 ft 0 kts 238°
2026-04-17 10:55 42.81952 47.65189 63 ft 7 kts 238°
2026-04-17 10:56 42.81921 47.65121 62 ft 9 kts 238°
2026-04-17 10:56 42.81874 47.65080 63 ft 9 kts 166°
2026-04-17 10:56 42.81778 47.65157 61 ft 38 kts 148°
2026-04-17 10:56 42.81332 47.65536 62 ft 109 kts 148°
2026-04-17 10:57 42.80555 47.66227 256 ft 146 kts 144°
2026-04-17 10:57 42.79708 47.66949 1008 ft 141 kts 146°
2026-04-17 10:57 42.78872 47.67622 1741 ft 138 kts 149°
2026-04-17 10:57 42.78057 47.68307 2480 ft 137 kts 145°
2026-04-17 10:58 42.77279 47.69042 3190 ft 135 kts 130°
2026-04-17 10:58 42.76894 47.70244 3621 ft 153 kts 91°
2026-04-17 10:58 42.77290 47.71715 3980 ft 182 kts 62°
2026-04-17 10:58 42.77983 47.73252 4279 ft 206 kts 63°
2026-04-17 10:59 42.78937 47.74861 4669 ft 236 kts 41°
2026-04-17 10:59 42.80561 47.75670 5109 ft 269 kts
2026-04-17 10:59 42.82483 47.75372 5817 ft 282 kts 349°
2026-04-17 10:59 42.84410 47.74752 6763 ft 287 kts 345°
2026-04-17 11:00 42.85684 47.74277 7410 ft 286 kts 344°
2026-04-17 11:00 42.88262 47.73283 8673 ft 290 kts 343°
2026-04-17 11:00 42.89552 47.72794 9313 ft 291 kts 343°
2026-04-17 11:00 42.91512 47.72072 10261 ft 294 kts 343°
2026-04-17 11:01 42.93571 47.71334 10630 ft 318 kts 343°
2026-04-17 11:01 42.95792 47.70558 10902 ft 341 kts 344°
2026-04-17 11:01 42.98139 47.69755 11449 ft 352 kts 344°
2026-04-17 11:01 43.00544 47.68944 12154 ft 358 kts 345°
2026-04-17 11:02 43.02979 47.68125 12927 ft 362 kts 345°
2026-04-17 11:02 43.05401 47.67144 13704 ft 365 kts 335°
2026-04-17 11:02 43.07557 47.65315 14384 ft 367 kts 317°
2026-04-17 11:02 43.09206 47.62673 15067 ft 367 kts 300°
2026-04-17 11:03 43.10210 47.59467 15733 ft 369 kts 283°
2026-04-17 11:03 43.10466 47.55974 16419 ft 371 kts 267°
2026-04-17 11:03 43.10256 47.52445 17101 ft 374 kts 265°
2026-04-17 11:03 43.10032 47.48878 17741 ft 377 kts 265°
2026-04-17 11:04 43.09809 47.45330 18344 ft 382 kts 265°
2026-04-17 11:04 43.09583 47.41701 18925 ft 384 kts 266°
2026-04-17 11:04 43.09358 47.38044 19481 ft 386 kts 266°
2026-04-17 11:04 43.09131 47.34367 20068 ft 389 kts 266°
2026-04-17 11:05 43.08898 47.30666 20615 ft 392 kts 265°
2026-04-17 11:05 43.08659 47.26936 21112 ft 396 kts 266°
2026-04-17 11:05 43.08419 47.23178 21651 ft 398 kts 267°
2026-04-17 11:05 43.08177 47.19392 22173 ft 400 kts 267°
2026-04-17 11:06 43.07936 47.15593 22737 ft 402 kts 266°
2026-04-17 11:06 43.07692 47.11768 23222 ft 405 kts 266°
2026-04-17 11:06 43.07443 47.07913 23672 ft 409 kts 266°
2026-04-17 11:06 43.07191 47.04030 24097 ft 411 kts 266°
2026-04-17 11:07 43.06935 47.00119 24510 ft 414 kts 267°
2026-04-17 11:07 43.06673 46.96189 24906 ft 417 kts 266°
2026-04-17 11:07 43.06409 46.92227 25269 ft 420 kts 266°
2026-04-17 11:07 43.06235 46.88235 25612 ft 422 kts 272°
2026-04-17 11:08 43.06493 46.84284 25975 ft 423 kts 282°
2026-04-17 11:08 43.07227 46.80397 26371 ft 423 kts 290°
2026-04-17 11:08 43.08312 46.76640 26735 ft 426 kts 292°
2026-04-17 11:08 43.09423 46.72862 27099 ft 429 kts 292°
2026-04-17 11:09 43.10531 46.69054 27421 ft 433 kts 292°
2026-04-17 11:09 43.11644 46.65211 27749 ft 436 kts 292°
2026-04-17 11:09 43.12756 46.61344 28103 ft 438 kts 292°
2026-04-17 11:10 43.14990 46.53540 28840 ft 441 kts 292°
2026-04-17 11:10 43.16119 46.49618 29120 ft 445 kts 292°
2026-04-17 11:10 43.17260 46.45668 29426 ft 447 kts 292°
2026-04-17 11:10 43.18408 46.41692 29732 ft 449 kts 292°
2026-04-17 11:11 43.19557 46.37699 30034 ft 452 kts 292°
2026-04-17 11:11 43.20710 46.33681 30357 ft 453 kts 292°
2026-04-17 11:11 43.21854 46.29676 30788 ft 450 kts 292°
2026-04-17 11:11 43.22992 46.25698 31216 ft 448 kts 292°
2026-04-17 11:12 43.24109 46.21787 31667 ft 445 kts 291°
2026-04-17 11:12 43.25249 46.17784 32048 ft 444 kts 292°
2026-04-17 11:12 43.26365 46.13850 32534 ft 440 kts 292°
2026-04-17 11:12 43.27455 46.10007 33014 ft 437 kts 292°
2026-04-17 11:13 43.28560 46.06132 33457 ft 435 kts 292°
2026-04-17 11:13 43.29663 46.02278 33882 ft 433 kts 292°
2026-04-17 11:13 43.30766 45.98432 34232 ft 432 kts 292°
2026-04-17 11:13 43.31880 45.94546 34555 ft 432 kts 292°
2026-04-17 11:14 43.32963 45.90761 34847 ft 431 kts 292°
2026-04-17 11:14 43.34057 45.86924 35144 ft 431 kts 292°
2026-04-17 11:14 43.35144 45.83088 35435 ft 430 kts 292°
2026-04-17 11:14 43.36226 45.79255 35736 ft 430 kts 292°
2026-04-17 11:15 43.37388 45.75482 36012 ft 429 kts 298°
2026-04-17 11:15 43.38968 45.72011 36117 ft 428 kts 308°
2026-04-17 11:15 43.43342 45.66497 36138 ft 430 kts 327°
2026-04-17 11:16 43.48537 45.62412 36138 ft 430 kts 329°
2026-04-17 11:16 43.53726 45.58309 36140 ft 429 kts 329°
2026-04-17 11:17 43.58907 45.54211 36141 ft 429 kts 329°
2026-04-17 11:17 43.64090 45.50109 36142 ft 429 kts 329°
2026-04-17 11:18 43.69264 45.46000 36139 ft 429 kts 328°
2026-04-17 11:18 43.73850 45.40832 36141 ft 426 kts 310°
2026-04-17 11:19 43.77042 45.33953 36139 ft 426 kts 299°
2026-04-17 11:19 43.79885 45.26762 36139 ft 426 kts 299°
2026-04-17 11:20 43.82729 45.19562 36137 ft 426 kts 299°
2026-04-17 11:20 43.85564 45.12359 36138 ft 426 kts 299°
2026-04-17 11:21 43.88389 45.05146 36137 ft 425 kts 299°
2026-04-17 11:21 43.91197 44.97990 36137 ft 425 kts 299°
2026-04-17 11:22 43.94035 44.90733 36135 ft 425 kts 299°
2026-04-17 11:22 43.96829 44.83560 36137 ft 425 kts 299°
2026-04-17 11:23 43.99629 44.76347 36139 ft 424 kts 299°
2026-04-17 11:23 44.02422 44.69136 36140 ft 424 kts 299°
2026-04-17 11:24 44.05214 44.61921 36134 ft 424 kts 299°
2026-04-17 11:24 44.08029 44.54722 36132 ft 423 kts 301°
2026-04-17 11:25 44.11003 44.47660 36132 ft 423 kts 302°
2026-04-17 11:25 44.14024 44.40631 36129 ft 423 kts 302°
2026-04-17 11:26 44.17011 44.33574 36121 ft 423 kts 301°
2026-04-17 11:26 44.19959 44.26500 36132 ft 422 kts 301°
2026-04-17 11:27 44.22891 44.19418 36130 ft 421 kts 301°
2026-04-17 11:27 44.25807 44.12392 36127 ft 421 kts 301°
2026-04-17 11:28 44.28737 44.05329 36120 ft 420 kts 302°
2026-04-17 11:28 44.31664 43.98274 35982 ft 418 kts 302°
2026-04-17 11:29 44.33115 43.94764 35327 ft 417 kts 302°
2026-04-17 11:29 44.34562 43.91257 34641 ft 417 kts 302°
2026-04-17 11:29 44.36006 43.87749 33946 ft 416 kts 302°
2026-04-17 11:29 44.37450 43.84237 33103 ft 417 kts 302°
2026-04-17 11:30 44.38895 43.80715 32185 ft 419 kts 302°
2026-04-17 11:30 44.40349 43.77163 31222 ft 422 kts 302°
2026-04-17 11:30 44.41811 43.73594 30354 ft 424 kts 302°
2026-04-17 11:30 44.43283 43.70006 29271 ft 427 kts 301°
2026-04-17 11:31 44.44763 43.66395 28315 ft 427 kts 301°
2026-04-17 11:31 44.46230 43.62810 27537 ft 422 kts 301°
2026-04-17 11:31 44.47683 43.59261 26775 ft 419 kts 301°
2026-04-17 11:31 44.49147 43.55751 26051 ft 415 kts 301°
2026-04-17 11:32 44.50613 43.52284 25349 ft 412 kts 301°
2026-04-17 11:32 44.52076 43.48848 24659 ft 409 kts 300°
2026-04-17 11:32 44.53526 43.45430 24003 ft 406 kts 300°
2026-04-17 11:32 44.54961 43.42035 23273 ft 404 kts 300°
2026-04-17 11:33 44.56381 43.38661 22563 ft 400 kts 300°
2026-04-17 11:33 44.57789 43.35308 21899 ft 397 kts 300°
2026-04-17 11:33 44.59181 43.31988 21241 ft 393 kts 300°
2026-04-17 11:33 44.60563 43.28690 20606 ft 390 kts 300°
2026-04-17 11:34 44.61928 43.25421 19983 ft 387 kts 300°
2026-04-17 11:34 44.63283 43.22171 19391 ft 384 kts 300°
2026-04-17 11:34 44.64610 43.18986 18818 ft 381 kts 300°
2026-04-17 11:34 44.65945 43.15776 18221 ft 378 kts 300°
2026-04-17 11:35 44.67266 43.12597 17587 ft 376 kts 300°
2026-04-17 11:35 44.68578 43.09435 16989 ft 373 kts 299°
2026-04-17 11:35 44.69875 43.06297 16407 ft 370 kts 299°
2026-04-17 11:35 44.71160 43.03178 15866 ft 367 kts 299°
2026-04-17 11:36 44.72437 43.00085 15310 ft 365 kts 299°
2026-04-17 11:36 44.73710 42.97013 14773 ft 362 kts 300°
2026-04-17 11:36 44.74998 42.93979 14250 ft 360 kts 300°
2026-04-17 11:36 44.76305 42.90991 13721 ft 358 kts 301°
2026-04-17 11:37 44.77615 42.88034 13163 ft 354 kts 301°
2026-04-17 11:37 44.78919 42.85102 12598 ft 351 kts 301°
2026-04-17 11:37 44.80205 42.82196 12044 ft 349 kts 301°
2026-04-17 11:37 44.81478 42.79300 11459 ft 346 kts 301°
2026-04-17 11:38 44.82736 42.76427 10904 ft 343 kts 301°
2026-04-17 11:38 44.83969 42.73605 10341 ft 341 kts 300°
2026-04-17 11:38 44.85200 42.70780 9973 ft 333 kts 300°
2026-04-17 11:38 44.86384 42.68056 9829 ft 318 kts 300°
2026-04-17 11:39 44.87513 42.65455 9691 ft 305 kts 300°
2026-04-17 11:39 44.88597 42.62958 9557 ft 293 kts 300°
2026-04-17 11:39 44.89639 42.60558 9423 ft 281 kts 300°
2026-04-17 11:39 44.90654 42.58257 9290 ft 271 kts 304°
2026-04-17 11:40 44.92009 42.56514 9157 ft 262 kts 330°
2026-04-17 11:40 44.93707 42.55737 9025 ft 255 kts 353°
2026-04-17 11:40 44.95441 42.55939 8893 ft 247 kts 15°
2026-04-17 11:40 44.96948 42.57001 8738 ft 240 kts 38°
2026-04-17 11:41 44.98054 42.58731 8462 ft 238 kts 59°
2026-04-17 11:41 44.98635 42.60897 8205 ft 235 kts 82°
2026-04-17 11:41 44.98628 42.63187 8114 ft 234 kts 103°
2026-04-17 11:41 44.98070 42.65308 8121 ft 234 kts 123°
2026-04-17 11:42 44.97019 42.67037 8124 ft 232 kts 142°
2026-04-17 11:42 44.95736 42.68431 8124 ft 233 kts 146°
2026-04-17 11:42 44.94406 42.69736 8126 ft 233 kts 147°
2026-04-17 11:42 44.93064 42.71014 8127 ft 232 kts 147°
2026-04-17 11:43 44.91726 42.72288 8121 ft 232 kts 147°
2026-04-17 11:43 44.90396 42.73567 8126 ft 231 kts 147°
2026-04-17 11:43 44.89065 42.74838 8127 ft 231 kts 151°
2026-04-17 11:43 44.87583 42.75658 8124 ft 228 kts 171°
2026-04-17 11:44 44.86012 42.75705 8121 ft 226 kts 192°
2026-04-17 11:44 44.84563 42.74988 8128 ft 224 kts 212°
2026-04-17 11:44 44.83362 42.73568 8119 ft 223 kts 232°
2026-04-17 11:44 44.82614 42.71693 8118 ft 224 kts 252°
2026-04-17 11:45 44.82371 42.69533 8123 ft 225 kts 271°
2026-04-17 11:45 44.82684 42.67383 8117 ft 226 kts 291°
2026-04-17 11:45 44.83527 42.65508 8122 ft 229 kts 313°
2026-04-17 11:45 44.84747 42.64058 8117 ft 230 kts 322°
2026-04-17 11:46 44.86053 42.62746 8124 ft 231 kts 324°
2026-04-17 11:46 44.87382 42.61474 8122 ft 231 kts 324°
2026-04-17 11:46 44.88723 42.60197 8128 ft 242 kts 324°
2026-04-17 11:46 44.90213 42.58754 8127 ft 271 kts 324°
2026-04-17 11:47 44.91787 42.57219 8120 ft 277 kts 323°
2026-04-17 11:47 44.93157 42.55327 8122 ft 276 kts 302°
2026-04-17 11:47 44.93877 42.52840 8123 ft 275 kts 278°
2026-04-17 11:47 44.94026 42.50149 8121 ft 275 kts 272°
2026-04-17 11:48 44.94130 42.47453 8112 ft 275 kts 272°
2026-04-17 11:48 44.94235 42.44757 8117 ft 275 kts 272°
2026-04-17 11:48 44.94341 42.42060 8113 ft 275 kts 272°
2026-04-17 11:48 44.94446 42.39367 8118 ft 275 kts 272°
2026-04-17 11:49 44.94551 42.36686 7883 ft 272 kts 272°
2026-04-17 11:49 44.94653 42.34010 7702 ft 273 kts 272°
2026-04-17 11:49 44.94719 42.32232 7618 ft 274 kts 272°
2026-04-17 11:49 44.94853 42.28673 7451 ft 273 kts 272°
2026-04-17 11:50 44.94955 42.25998 7308 ft 273 kts 272°
2026-04-17 11:50 44.95056 42.23319 7147 ft 273 kts 272°
2026-04-17 11:50 44.95156 42.20643 6974 ft 273 kts 272°
2026-04-17 11:50 44.95256 42.17965 6803 ft 273 kts 272°
2026-04-17 11:51 44.95357 42.15290 6630 ft 273 kts 272°
2026-04-17 11:51 44.95458 42.12611 6453 ft 273 kts 271°
2026-04-17 11:51 44.95524 42.10844 6342 ft 272 kts 272°
2026-04-17 11:51 44.95622 42.08173 6184 ft 271 kts 272°
2026-04-17 11:52 44.95746 42.04760 5980 ft 255 kts 272°
2026-04-17 11:52 44.95836 42.02314 5825 ft 244 kts 272°
2026-04-17 11:52 44.95921 41.99964 5669 ft 235 kts 272°
2026-04-17 11:52 44.95975 41.98426 5560 ft 229 kts 272°
2026-04-17 11:53 44.96051 41.96218 5403 ft 223 kts 272°
2026-04-17 11:53 44.96125 41.94064 5258 ft 217 kts 272°
2026-04-17 11:53 44.96279 41.91981 5131 ft 210 kts 284°
2026-04-17 11:53 44.96819 41.90109 5032 ft 203 kts 301°
2026-04-17 11:54 44.97689 41.88600 4959 ft 201 kts 318°
2026-04-17 11:54 44.98836 41.87495 4916 ft 200 kts 335°
2026-04-17 11:54 45.00151 41.86879 4881 ft 199 kts 346°
2026-04-17 11:54 45.01498 41.86403 4831 ft 199 kts 346°
2026-04-17 11:55 45.02842 41.85920 4781 ft 199 kts 346°
2026-04-17 11:55 45.04196 41.85566 4727 ft 198 kts
2026-04-17 11:55 45.05507 41.86059 4677 ft 197 kts 31°
2026-04-17 11:55 45.06475 41.87397 4632 ft 197 kts 61°
2026-04-17 11:56 45.06918 41.89222 4569 ft 198 kts 75°
2026-04-17 11:56 45.07256 41.91096 4369 ft 194 kts 75°
2026-04-17 11:56 45.07588 41.92920 4102 ft 190 kts 75°
2026-04-17 11:56 45.07914 41.94710 3832 ft 185 kts 75°
2026-04-17 11:57 45.08228 41.96430 3567 ft 176 kts 76°
2026-04-17 11:57 45.08526 41.98064 3325 ft 167 kts 76°
2026-04-17 11:57 45.08807 41.99601 3116 ft 154 kts 76°
2026-04-17 11:57 45.09066 42.01024 2882 ft 146 kts 76°
2026-04-17 11:58 45.09315 42.02391 2665 ft 142 kts 76°
2026-04-17 11:58 45.09559 42.03735 2447 ft 140 kts 77°
2026-04-17 11:58 45.09797 42.05066 2246 ft 139 kts 77°
2026-04-17 11:58 45.10043 42.06387 2032 ft 138 kts 78°
2026-04-17 11:59 45.10275 42.07682 1865 ft 138 kts 78°
2026-04-17 11:59 45.10514 42.08987 1651 ft 136 kts 78°
2026-04-17 11:59 45.10748 42.10275 1492 ft 128 kts 77°
2026-04-17 11:59 45.10934 42.11318 1472 ft 86 kts 75°
2026-04-17 12:00 45.11032 42.11860 1465 ft 30 kts 75°
2026-04-17 12:00 45.11105 42.11991 1465 ft 17 kts 357°
2026-04-17 12:00 45.11197 42.11961 1464 ft 11 kts 346°
2026-04-17 12:00 45.11268 42.11930 1464 ft 10 kts 321°
2026-04-17 12:01 45.11279 42.11850 1466 ft 9 kts 261°
2026-04-17 12:01 45.11261 42.11741 1468 ft 14 kts 256°
2026-04-17 12:01 45.11234 42.11586 1470 ft 19 kts 256°
2026-04-17 12:01 45.11200 42.11388 1473 ft 23 kts 256°
2026-04-17 12:02 45.11160 42.11164 1477 ft 24 kts 256°
2026-04-17 12:02 45.11119 42.10935 1476 ft 24 kts 255°
2026-04-17 12:02 45.11091 42.10779 1479 ft 7 kts 262°
2026-04-17 12:02 45.11118 42.10756 1480 ft 4 kts 352°
2026-04-17 12:03 45.11127 42.10753 1472 ft 0 kts 346°